sat.trackr.live / text

‹ back to catalog

HULIANWANG DIGUI-61

NORAD 65167 · 2025-174D

PAYLOAD ACTIVE UNKNOWN

§ Identity

Operator
Country
PRC
Launch date
2025-08-13
Launch site
WSC
Launch vehicle
Mass (kg)
RCS (m²)

External: N2YO · Heavens-Above · Gunter

§ Orbital elements

Epoch: 2026-05-25T04:06:37.710720Z

Period
108.73 min
Inclination
86.4959°
Eccentricity
0.0002056
Mean motion
13.24404521 rev/d
Perigee alt
1,166.4 km
Apogee alt
1,169.5 km
Semi-major
7,546.1 km
B*
6.4534e-5
RAAN
259.7991°
Arg perigee
93.2986°
Mean anomaly
266.8383°
Rev number
3,774

§ Raw data

HULIANWANG DIGUI-611 65167U 25174D   26145.17126980  .00000042  00000+0  64534-4 0  99972 65167  86.4959 259.7991 0002056  93.2986 266.8383 13.24404521 37743

JSON: /api/v1/satellites/65167 · /tle

For live sub-satellite position, see the globe view (requires WebGL).

§ Visibility from observer

Set your observer location to see the next 7 days of passes ≥ 10°. The values pass through the URL so the page stays shareable.

No JS? Fill the form by hand. The geolocation button needs JavaScript.